Starlink 35104

operational
NORAD ID: 65631 Int'l Des: 2025-210 Owner: SPXS Country: US Constellation: starlink
NOTLE

关于 Starlink 35104

正在加载描述...

实时位置

正在加载3D地球...

即将过境

高度历史

Altitude vs Time

uPlot chart will show altitude changes over time

两行轨道根数

1 65631U 25210K 25340.81058832 .00058466 00000-0 19678-2 0 9992
2 65631 53.1583 18.2999 0000933 306.1547 53.9367 15.30247735 13506
Epoch: Dec 6, 2025 • Age: 18 hours

当前状态

高度 481.4 km
速度 7.63 km/s
星下点 50.77°N, 144.86°W
发射日期 Sep 18, 2025
运行时间 0.2 years
类型 internet

技术详情

分类 Payload
质量 575.00 kg
干质量 530.00 kg
总质量 575.00 kg
长度 0.30 m
直径 4.10 m
跨度 29.00 m
形状 Box + pan
制造商 SPXS
平台类型 Starlink V2MO
阶段状态 In Orbit
所有者/国家 SPXS/US

大型星座

Loading constellations...